#ZEITBEREICH: 05.05.2023 bis 05.05.2024
Datum;Zeit;WALS F AM1H [%];WALS NO AM1H [�g/m�];WALS NO2 AM1H [�g/m�];WALS O3 AM1H [�g/m�];WALS PM10F GM24H [�g/m�];WALS SO2 AM1H [�g/m�];WALS T AM1H [�C];WALS WG SM1H [m/s];WALS WR VM1H [�]
05.05.2023;01:00;49,3;<7;14;86;17;<10;18,3;2,9;161
05.05.2023;02:00;50,9;<7;33;67;17;12;18,4;2,8;179
05.05.2023;03:00;59,3;<7;36;52;18;15;17,7;2,6;223
05.05.2023;04:00;67,3;<7;26;53;18;<10;16,2;2,1;241
05.05.2023;05:00;77,3;<7;26;41;18;<10;14,8;1,1;228
05.05.2023;06:00;82,8;<7;36;26;18;<10;13,9;1,9;239
05.05.2023;07:00;79,8;<7;46;28;18;<10;15,0;1,7;239
05.05.2023;08:00;69,9;<7;26;56;18;<10;17,2;2,2;245
05.05.2023;09:00;65,0;<7;17;70;18;<10;18,7;2,7;253
05.05.2023;10:00;59,4;<7;11;83;17;<10;20,1;1,7;275
05.05.2023;11:00;57,1;<7;<10;88;17;<10;20,6;1,9;252
05.05.2023;12:00;55,5;<7;<10;92;17;<10;20,8;1,8;281
05.05.2023;13:00;56,4;<7;<10;94;17;<10;20,5;2,2;240
05.05.2023;14:00;57,9;;;89;17;<10;20,1;3,1;216
05.05.2023;15:00;61,1;<7;15;80;17;<10;19,4;3,4;276
05.05.2023;16:00;77,4;<7;11;77;17;<10;15,4;4,3;310
05.05.2023;17:00;89,1;<7;<10;72;17;<10;14,0;3,3;327
05.05.2023;18:00;89,6;<7;10;68;17;<10;13,9;1,6;37
05.05.2023;19:00;89,3;<7;11;63;16;;13,7;0,6;
05.05.2023;20:00;90,4;<7;15;50;16;<10;13,5;0,8;98
05.05.2023;21:00;94,2;<7;26;23;16;<10;12,4;0,4;
05.05.2023;22:00;95,7;<7;29;4;15;<10;11,5;0,3;
05.05.2023;23:00;96,3;26;29;<4;15;<10;10,9;0,4;
05.05.2023;24:00;96,5;18;22;<4;15;<10;10,5;0,3;
06.05.2023;01:00;96,5;18;16;;15;<10;10,1;0,9;83
06.05.2023;02:00;97,0;16;22;<4;15;<10;10,2;0,6;44
06.05.2023;03:00;97,1;14;23;<4;14;<10;9,9;1,0;77
06.05.2023;04:00;97,2;15;19;<4;14;<10;9,3;0,7;68
06.05.2023;05:00;97,0;18;16;<4;14;<10;8,9;1,3;112
06.05.2023;06:00;97,5;14;21;<4;13;<10;9,2;1,3;120
06.05.2023;07:00;97,6;19;25;<4;13;<10;11,0;1,0;128
06.05.2023;08:00;87,4;28;40;9;14;19;14,0;0,6;
06.05.2023;09:00;73,6;17;41;27;14;10;16,5;1,0;239
06.05.2023;10:00;64,7;11;37;46;15;32;18,4;2,1;180
06.05.2023;11:00;60,2;8;32;52;15;28;19,4;1,6;182
06.05.2023;12:00;56,8;<7;31;58;15;24;19,6;1,4;270
06.05.2023;13:00;54,5;<7;27;66;15;22;19,5;0,8;
06.05.2023;14:00;49,5;<7;15;86;15;16;20,3;1,2;200
06.05.2023;15:00;48,3;;;81;15;18;21,1;1,4;315
06.05.2023;16:00;47,5;<7;14;87;15;11;21,7;1,6;264
06.05.2023;17:00;55,7;<7;17;80;15;<10;20,3;2,8;237
06.05.2023;18:00;69,4;10;42;45;16;48;17,7;3,6;190
06.05.2023;19:00;67,5;<7;44;41;16;34;17,8;1,6;197
06.05.2023;20:00;73,8;<7;48;28;17;;17,2;0,9;220
06.05.2023;21:00;77,9;<7;30;44;17;13;16,4;1,0;85
06.05.2023;22:00;85,5;<7;31;29;17;<10;15,7;1,4;55
06.05.2023;23:00;88,0;<7;30;27;17;<10;15,4;1,5;61
06.05.2023;24:00;89,0;<7;25;28;17;<10;15,0;1,2;46
07.05.2023;01:00;88,9;<7;19;33;17;<10;14,8;1,1;41
07.05.2023;02:00;89,9;<7;18;;17;<10;14,5;1,2;56
07.05.2023;03:00;91,0;<7;17;24;17;<10;14,3;1,5;76
07.05.2023;04:00;92,1;<7;19;21;17;<10;14,1;1,5;76
07.05.2023;05:00;93,2;<7;20;15;17;<10;13,9;1,5;78
07.05.2023;06:00;93,8;<7;18;14;17;<10;13,8;1,4;84
07.05.2023;07:00;91,8;<7;16;15;17;<10;14,3;1,8;80
07.05.2023;08:00;83,4;7;22;17;16;<10;16,2;1,9;77
07.05.2023;09:00;79,3;<7;19;25;15;<10;17,2;2,1;67
07.05.2023;10:00;72,0;<7;17;35;15;<10;18,6;2,2;80
07.05.2023;11:00;66,8;<7;16;41;14;<10;20,4;2,4;53
07.05.2023;12:00;59,1;<7;11;58;14;<10;21,7;2,2;83
07.05.2023;13:00;53,8;<7;<10;76;14;<10;22,3;2,2;76
07.05.2023;14:00;55,2;<7;<10;83;14;<10;21,6;1,7;58
07.05.2023;15:00;61,1;<7;<10;82;14;<10;21,0;2,4;43
07.05.2023;16:00;69,2;;;73;14;<10;19,4;2,4;108
07.05.2023;17:00;85,5;<7;18;51;13;<10;18,3;1,4;66
07.05.2023;18:00;84,7;<7;17;45;13;<10;18,8;1,5;45
07.05.2023;19:00;83,7;<7;12;47;13;<10;18,3;2,1;327
07.05.2023;20:00;86,6;<7;17;45;13;<10;16,7;1,4;275
07.05.2023;21:00;95,7;<7;18;31;13;;15,5;1,1;321
07.05.2023;22:00;96,6;<7;24;21;13;<10;15,1;0,9;334
07.05.2023;23:00;97,1;<7;19;15;13;<10;15,1;1,3;68
07.05.2023;24:00;97,1;<7;17;16;13;<10;14,8;1,4;71
08.05.2023;01:00;97,1;<7;17;17;13;<10;14,2;1,4;65
08.05.2023;02:00;97,3;<7;16;13;13;<10;13,7;0,9;67
08.05.2023;03:00;97,5;<7;12;;12;<10;13,3;1,0;49
08.05.2023;04:00;97,0;<7;16;10;13;<10;13,1;1,3;100
08.05.2023;05:00;93,8;<7;25;7;13;<10;13,2;1,5;95
08.05.2023;06:00;95,8;12;28;<4;13;<10;12,9;1,7;83
08.05.2023;07:00;92,5;20;28;<4;13;<10;13,8;1,7;100
08.05.2023;08:00;85,2;16;27;14;13;<10;16,3;1,5;165
08.05.2023;09:00;79,0;11;27;26;13;12;17,9;2,1;180
08.05.2023;10:00;71,5;13;32;34;14;23;19,9;2,9;178
08.05.2023;11:00;71,0;7;32;38;15;26;19,5;2,2;181
08.05.2023;12:00;66,7;<7;17;60;15;10;20,1;2,8;157
08.05.2023;13:00;59,1;<7;<10;77;15;<10;22,0;3,2;156
08.05.2023;14:00;59,2;<7;<10;77;15;<10;21,4;2,8;135
08.05.2023;15:00;59,3;<7;<10;74;16;<10;22,1;3,0;140
08.05.2023;16:00;58,0;<7;<10;83;16;<10;21,9;2,9;140
08.05.2023;17:00;60,3;;;79;16;<10;21,2;3,2;138
08.05.2023;18:00;61,0;<7;<10;80;15;<10;20,2;3,6;139
08.05.2023;19:00;67,5;<7;<10;68;15;<10;19,2;3,1;141
08.05.2023;20:00;73,5;<7;15;49;15;<10;18,7;1,9;134
08.05.2023;21:00;77,7;<7;17;40;15;<10;18,1;1,8;129
08.05.2023;22:00;78,6;<7;14;45;15;;17,6;2,2;136
08.05.2023;23:00;79,9;<7;14;47;15;<10;17,1;2,0;147
08.05.2023;24:00;81,1;<7;16;41;15;<10;16,8;1,9;150
09.05.2023;01:00;82,0;<7;14;41;15;<10;16,5;2,7;161
09.05.2023;02:00;81,9;<7;12;43;15;<10;16,3;2,9;158
09.05.2023;03:00;83,0;<7;13;38;15;<10;16,1;3,0;155
09.05.2023;04:00;84,6;<7;23;;16;<10;16,0;1,9;173
09.05.2023;05:00;86,4;<7;25;17;16;<10;15,9;1,7;230
09.05.2023;06:00;86,5;<7;16;22;16;<10;15,7;0,8;219
09.05.2023;07:00;86,2;<7;25;15;17;<10;15,9;1,4;140
09.05.2023;08:00;83,7;7;27;15;18;12;16,7;2,5;152
09.05.2023;09:00;78,8;8;22;25;18;<10;17,8;3,4;161
09.05.2023;10:00;70,5;10;26;28;18;20;19,5;3,3;176
09.05.2023;11:00;62,0;<7;16;49;17;15;20,4;3,7;177
09.05.2023;12:00;60,8;<7;15;56;18;13;20,1;3,7;186
09.05.2023;13:00;60,6;<7;16;54;18;13;20,8;3,1;151
09.05.2023;14:00;64,5;<7;12;56;18;<10;20,5;2,6;245
09.05.2023;15:00;86,0;<7;11;47;18;<10;17,2;3,3;262
09.05.2023;16:00;90,6;<7;12;41;18;<10;16,4;2,5;269
09.05.2023;17:00;93,0;<7;<10;43;18;<10;15,7;2,2;275
09.05.2023;18:00;94,7;;;41;17;<10;15,3;1,7;269
09.05.2023;19:00;94,5;<7;11;43;17;<10;14,5;2,1;259
09.05.2023;20:00;96,0;<7;15;37;17;<10;14,1;1,4;252
09.05.2023;21:00;96,4;<7;18;32;17;<10;13,9;0,9;
09.05.2023;22:00;96,4;<7;15;38;17;<10;13,7;2,2;237
09.05.2023;23:00;97,1;<7;10;40;16;;13,4;2,5;238
09.05.2023;24:00;97,5;<7;14;29;16;<10;13,3;2,6;238
10.05.2023;01:00;97,8;<7;12;28;16;<10;13,3;2,6;256
10.05.2023;02:00;97,4;<7;<10;52;15;<10;12,8;2,4;278
10.05.2023;03:00;97,7;<7;<10;50;15;<10;12,6;1,9;266
10.05.2023;04:00;97,8;<7;<10;50;14;<10;12,5;1,6;240
10.05.2023;05:00;97,9;<7;14;;14;<10;12,6;1,9;239
10.05.2023;06:00;97,9;<7;15;36;13;<10;12,8;2,3;246
10.05.2023;07:00;97,7;<7;19;30;12;<10;13,0;2,3;250
10.05.2023;08:00;96,3;<7;17;33;11;<10;13,4;2,4;241
10.05.2023;09:00;94,4;<7;14;35;11;<10;13,8;2,8;241
10.05.2023;10:00;88,8;<7;11;38;11;<10;15,0;3,4;252
10.05.2023;11:00;86,5;<7;10;47;11;<10;14,7;3,6;246
10.05.2023;12:00;86,8;<7;11;52;11;<10;14,3;3,6;253
10.05.2023;13:00;83,1;<7;11;55;11;<10;15,3;3,5;253
10.05.2023;14:00;79,0;<7;<10;64;11;<10;15,8;3,1;245
10.05.2023;15:00;69,9;<7;<10;77;11;<10;17,4;3,0;241
10.05.2023;16:00;66,0;<7;<10;80;11;<10;17,9;2,7;262
10.05.2023;17:00;75,7;<7;<10;73;11;<10;15,8;3,2;289
10.05.2023;18:00;87,7;<7;11;65;11;<10;14,0;2,2;273
10.05.2023;19:00;91,6;;;53;11;<10;14,0;1,8;258
10.05.2023;20:00;92,2;<7;19;47;11;<10;13,8;1,2;240
10.05.2023;21:00;94,0;<7;22;40;11;<10;13,3;1,0;241
10.05.2023;22:00;96,0;<7;25;17;11;<10;12,8;0,2;
10.05.2023;23:00;97,3;<7;28;9;11;<10;12,5;1,1;229
10.05.2023;24:00;97,0;<7;34;13;12;;13,0;1,3;256
11.05.2023;01:00;97,1;<7;19;23;12;<10;12,8;1,6;251
11.05.2023;02:00;97,6;<7;16;28;12;<10;12,7;1,4;266
11.05.2023;03:00;97,8;<7;16;25;13;<10;12,7;1,4;260
11.05.2023;04:00;98,0;<7;12;33;13;<10;12,4;2,3;243
11.05.2023;05:00;97,9;<7;12;35;13;<10;12,1;1,6;268
11.05.2023;06:00;97,9;<7;14;;13;<10;12,1;1,4;274
11.05.2023;07:00;97,7;<7;14;32;13;<10;12,3;1,2;285
11.05.2023;08:00;97,2;<7;18;28;13;<10;12,8;1,8;245
11.05.2023;09:00;93,1;<7;12;36;13;<10;13,9;1,4;263
11.05.2023;10:00;84,1;<7;<10;52;12;<10;15,1;2,0;287
11.05.2023;11:00;85,0;<7;10;50;12;;14,9;2,3;264
11.05.2023;12:00;84,1;<7;<10;49;12;;15,4;2,7;255
11.05.2023;13:00;79,7;<7;<10;56;12;;15,6;2,4;289
11.05.2023;14:00;80,0;<7;<10;63;12;11;15,7;2,1;283
11.05.2023;15:00;76,1;<7;<10;62;12;<10;16,6;2,3;287
11.05.2023;16:00;79,3;<7;<10;66;12;<10;16,2;2,1;332
11.05.2023;17:00;93,1;<7;<10;64;13;<10;14,3;1,7;7
11.05.2023;18:00;92,2;<7;<10;58;;<10;14,7;1,2;3
11.05.2023;19:00;91,6;<7;<10;62;;<10;14,6;2,2;23
11.05.2023;20:00;93,7;;;57;;<10;14,1;1,8;19
11.05.2023;21:00;94,8;<7;12;42;;<10;13,7;1,3;345
11.05.2023;22:00;95,6;<7;12;40;;<10;13,7;1,9;348
11.05.2023;23:00;96,5;<7;12;35;;<10;13,5;1,9;343
11.05.2023;24:00;97,0;<7;11;35;;<10;13,4;2,3;345
12.05.2023;01:00;97,6;<7;<10;35;;<10;13,1;2,3;322
12.05.2023;02:00;97,8;<7;<10;36;;<10;12,8;3,5;334
12.05.2023;03:00;98,1;<7;<10;32;;<10;13,0;2,9;20
12.05.2023;04:00;98,0;<7;11;31;;<10;13,3;3,1;65
12.05.2023;05:00;96,1;<7;16;28;;<10;13,3;3,5;87
12.05.2023;06:00;96,3;<7;21;20;;<10;12,9;2,6;73
12.05.2023;07:00;95,0;<7;24;;;<10;13,0;3,1;79
12.05.2023;08:00;88,6;<7;21;30;;<10;13,9;2,8;80
12.05.2023;09:00;86,8;<7;18;32;;<10;14,2;3,2;75
12.05.2023;10:00;87,3;8;22;27;;<10;14,0;2,7;68
12.05.2023;11:00;79,5;<7;17;43;;<10;15,3;3,2;72
12.05.2023;12:00;69,3;<7;15;57;;<10;17,1;3,4;81
12.05.2023;13:00;66,0;<7;11;63;;<10;18,4;3,1;67
12.05.2023;14:00;65,5;<7;<10;75;<10;;18,5;3,0;48
12.05.2023;15:00;63,9;<7;<10;82;<10;<10;19,2;2,9;39
12.05.2023;16:00;58,5;<7;<10;95;10;<10;20,4;3,9;47
12.05.2023;17:00;89,2;<7;11;80;10;<10;14,8;2,2;
12.05.2023;18:00;91,0;<7;15;69;10;<10;14,6;1,9;24
12.05.2023;19:00;95,3;<7;23;43;11;<10;14,6;1,3;3
12.05.2023;20:00;96,1;<7;30;31;11;<10;14,1;1,4;4
12.05.2023;21:00;95,8;;;34;12;<10;13,7;1,7;354
12.05.2023;22:00;96,0;<7;33;23;13;<10;13,3;1,6;348
12.05.2023;23:00;96,9;<7;21;25;13;<10;12,3;1,7;11
12.05.2023;24:00;96,1;<7;13;28;13;<10;11,7;1,8;45
13.05.2023;01:00;96,6;<7;14;21;14;<10;10,9;0,8;70
13.05.2023;02:00;97,7;<7;13;8;15;<10;10,1;0,5;
13.05.2023;03:00;97,9;<7;10;<4;15;<10;9,3;0,1;
13.05.2023;04:00;98,1;<7;<10;<4;15;<10;8,8;0,9;322
13.05.2023;05:00;98,0;<7;12;<4;15;<10;8,3;0,4;
13.05.2023;06:00;98,3;<7;12;<4;16;<10;8,4;0,8;323
13.05.2023;07:00;96,9;<7;16;21;16;<10;10,3;1,0;347
13.05.2023;08:00;81,3;<7;12;51;17;<10;14,2;1,8;33
13.05.2023;09:00;68,8;<7;18;58;17;<10;17,1;2,2;44
13.05.2023;10:00;62,4;<7;16;68;18;<10;18,9;2,3;25
13.05.2023;11:00;49,4;<7;<10;94;18;<10;21,6;3,5;36
13.05.2023;12:00;42,7;<7;<10;109;19;<10;22,5;4,7;48
13.05.2023;13:00;39,6;<7;<10;113;19;<10;23,8;4,1;35
13.05.2023;14:00;37,9;<7;<10;118;19;<10;23,5;4,0;35
13.05.2023;15:00;40,0;<7;<10;118;20;;22,7;3,1;40
13.05.2023;16:00;39,1;<7;<10;116;20;<10;23,0;2,9;34
13.05.2023;17:00;39,0;<7;<10;114;20;<10;21,9;3,7;70
13.05.2023;18:00;43,5;<7;<10;106;20;<10;20,3;2,9;90
13.05.2023;19:00;44,3;<7;10;102;20;<10;20,0;1,9;102
13.05.2023;20:00;54,1;<7;11;100;20;<10;18,4;2,1;70
13.05.2023;21:00;67,0;<7;30;58;20;<10;16,0;0,5;
13.05.2023;22:00;79,3;;;25;20;<10;13,9;0,4;
13.05.2023;23:00;83,5;<7;52;;21;<10;13,6;1,3;322
13.05.2023;24:00;87,0;<7;38;<4;21;<10;13,1;1,0;327
14.05.2023;01:00;89,2;<7;33;8;21;<10;12,2;0,6;
14.05.2023;02:00;92,6;<7;26;7;21;<10;10,9;0,8;60
14.05.2023;03:00;93,7;<7;18;9;22;<10;10,0;0,7;349
14.05.2023;04:00;94,6;<7;15;11;22;<10;9,4;0,6;
14.05.2023;05:00;94,9;<7;13;7;22;<10;8,7;0,9;19
14.05.2023;06:00;94,4;<7;12;11;22;<10;8,9;0,7;345
14.05.2023;07:00;89,4;<7;12;19;22;<10;10,5;0,7;354
14.05.2023;08:00;74,8;<7;19;40;22;<10;13,9;1,0;29
14.05.2023;09:00;71,8;<7;23;40;22;<10;15,7;1,1;21
14.05.2023;10:00;62,7;<7;18;51;22;<10;18,7;0,9;
14.05.2023;11:00;47,7;<7;11;96;22;<10;21,4;2,4;0
14.05.2023;12:00;39,0;<7;<10;114;22;<10;22,3;3,1;23
14.05.2023;13:00;33,9;<7;<10;113;22;<10;23,1;2,9;66
14.05.2023;14:00;35,8;<7;<10;112;21;<10;22,2;2,9;7
14.05.2023;15:00;33,9;<7;<10;112;21;<10;22,8;2,7;12
14.05.2023;16:00;35,0;<7;<10;112;21;;22,3;2,8;357
14.05.2023;17:00;37,9;<7;<10;111;21;<10;21,6;3,0;350
14.05.2023;18:00;42,7;<7;<10;110;21;<10;21,1;3,5;342
14.05.2023;19:00;43,7;<7;<10;109;21;<10;20,5;3,0;345
14.05.2023;20:00;47,0;<7;<10;103;21;<10;19,4;2,1;344
14.05.2023;21:00;54,0;<7;12;88;21;<10;17,9;1,6;344
14.05.2023;22:00;61,1;<7;18;70;21;<10;16,5;1,2;339
14.05.2023;23:00;64,0;;;68;20;<10;16,1;2,1;315
14.05.2023;24:00;81,4;<7;<10;;20;<10;15,4;2,4;322
15.05.2023;01:00;89,8;<7;<10;51;20;<10;14,2;1,6;310
15.05.2023;02:00;92,1;<7;<10;44;20;<10;13,3;1,4;296
15.05.2023;03:00;92,0;<7;<10;46;20;<10;12,5;1,5;298
15.05.2023;04:00;92,9;<7;<10;43;19;<10;11,8;1,2;281
15.05.2023;05:00;93,0;<7;13;36;19;<10;11,6;1,5;274
15.05.2023;06:00;91,7;<7;13;37;19;<10;11,7;1,3;279
15.05.2023;07:00;89,3;<7;17;35;19;<10;11,7;2,1;274
15.05.2023;08:00;82,6;<7;14;48;19;<10;12,6;3,2;281
15.05.2023;09:00;79,7;<7;11;59;19;<10;13,3;3,3;286
15.05.2023;10:00;67,1;<7;<10;78;19;<10;15,9;3,1;292
15.05.2023;11:00;59,1;<7;<10;90;19;<10;17,1;3,2;306
15.05.2023;12:00;54,1;<7;<10;100;19;<10;18,6;3,0;303
15.05.2023;13:00;51,0;<7;<10;106;19;<10;19,7;3,2;293
15.05.2023;14:00;48,9;<7;<10;106;20;<10;20,3;3,5;297
15.05.2023;15:00;55,7;<7;<10;94;20;<10;19,4;4,8;311
15.05.2023;16:00;56,2;<7;10;82;20;<10;18,9;4,5;297
15.05.2023;17:00;61,7;<7;11;75;20;;17,8;4,4;298
15.05.2023;18:00;63,7;<7;10;76;21;<10;17,3;4,4;292
15.05.2023;19:00;85,2;<7;12;66;21;<10;14,4;2,9;298
15.05.2023;20:00;87,3;<7;12;60;21;<10;13,6;3,6;300
15.05.2023;21:00;83,9;<7;10;58;21;<10;13,2;3,8;297
15.05.2023;22:00;82,3;<7;<10;60;20;<10;12,8;3,4;298
15.05.2023;23:00;83,3;<7;<10;59;20;<10;12,6;3,3;294
15.05.2023;24:00;92,7;;;62;19;<10;11,5;3,2;320
16.05.2023;01:00;94,8;<7;<10;;18;<10;10,3;4,0;333
16.05.2023;02:00;93,6;<7;<10;69;18;<10;9,6;4,2;326
16.05.2023;03:00;91,8;<7;<10;71;17;<10;9,1;3,6;334
16.05.2023;04:00;88,5;<7;<10;67;17;<10;8,9;3,6;328
16.05.2023;05:00;88,2;<7;<10;60;17;<10;8,2;2,8;331
16.05.2023;06:00;88,8;<7;<10;52;17;<10;7,7;2,1;327
16.05.2023;07:00;83,1;<7;<10;54;16;<10;8,7;2,7;330
16.05.2023;08:00;71,2;<7;<10;60;16;<10;10,9;3,0;327
16.05.2023;09:00;60,1;<7;<10;69;16;<10;12,3;4,1;336
16.05.2023;10:00;56,0;<7;<10;71;16;<10;13,3;4,1;330
16.05.2023;11:00;58,8;<7;<10;71;15;<10;12,5;3,6;330
16.05.2023;12:00;56,5;<7;<10;71;15;<10;13,7;3,7;312
16.05.2023;13:00;57,2;<7;<10;73;14;<10;13,7;3,6;326
16.05.2023;14:00;45,7;<7;<10;77;14;<10;15,9;4,0;317
16.05.2023;15:00;46,9;<7;<10;79;13;<10;15,0;4,3;327
16.05.2023;16:00;47,1;<7;<10;78;12;<10;14,8;4,6;330
16.05.2023;17:00;54,8;<7;<10;75;12;<10;13,5;3,9;333
16.05.2023;18:00;59,1;<7;<10;73;11;;13,0;3,7;318
16.05.2023;19:00;63,1;<7;<10;65;11;<10;12,7;2,9;309
16.05.2023;20:00;65,3;<7;<10;68;10;<10;12,1;2,6;346
16.05.2023;21:00;68,6;<7;<10;66;10;<10;11,5;1,5;333
16.05.2023;22:00;70,7;<7;<10;63;<10;<10;11,3;2,5;334
16.05.2023;23:00;76,2;<7;<10;63;10;<10;10,2;1,4;329
16.05.2023;24:00;83,5;<7;<10;51;10;<10;9,0;1,7;292
17.05.2023;01:00;86,0;;;44;10;<10;8,6;1,7;282
17.05.2023;02:00;89,9;<7;18;;11;<10;7,9;1,4;282
17.05.2023;03:00;91,7;<7;19;30;11;<10;7,6;1,6;284
17.05.2023;04:00;92,9;<7;16;31;11;<10;7,4;1,6;274
17.05.2023;05:00;93,1;<7;22;27;10;<10;7,7;1,2;260
17.05.2023;06:00;92,5;<7;16;33;10;<10;8,3;1,3;295
17.05.2023;07:00;85,9;<7;14;41;10;<10;9,6;1,8;328
17.05.2023;08:00;68,3;<7;<10;62;10;<10;11,6;3,0;355
17.05.2023;09:00;64,2;<7;<10;69;10;<10;11,3;3,2;338
17.05.2023;10:00;60,9;<7;<10;69;10;;11,8;3,5;331
17.05.2023;11:00;53,0;;;;11;;13,4;3,4;336
17.05.2023;12:00;49,1;<7;<10;71;12;;14,1;3,9;344
17.05.2023;13:00;47,0;<7;<10;75;12;<10;14,5;3,8;345
17.05.2023;14:00;44,4;<7;<10;78;12;<10;15,4;3,6;347
17.05.2023;15:00;44,1;<7;<10;80;12;<10;15,5;3,4;358
17.05.2023;16:00;42,1;<7;<10;85;12;<10;16,0;3,5;359
17.05.2023;17:00;43,3;<7;<10;88;13;<10;15,1;3,4;360
17.05.2023;18:00;43,9;<7;<10;91;13;<10;14,7;3,0;359
17.05.2023;19:00;45,0;<7;<10;90;13;<10;14,6;3,5;1
17.05.2023;20:00;48,4;<7;<10;86;14;<10;13,5;2,7;17
17.05.2023;21:00;54,2;<7;<10;80;14;<10;12,0;2,2;23
17.05.2023;22:00;60,1;<7;<10;72;14;<10;10,6;2,3;21
17.05.2023;23:00;65,1;<7;<10;69;15;<10;9,2;2,2;33
17.05.2023;24:00;69,9;<7;<10;64;15;<10;8,1;1,9;40
18.05.2023;01:00;74,3;<7;<10;61;15;<10;7,0;1,8;42
18.05.2023;02:00;77,5;<7;<10;58;15;<10;6,3;1,9;43
18.05.2023;03:00;80,3;<7;<10;53;15;<10;5,8;1,7;37
18.05.2023;04:00;82,8;<7;<10;48;15;<10;5,3;1,8;36
18.05.2023;05:00;84,8;<7;<10;45;15;<10;4,9;2,1;40
18.05.2023;06:00;82,6;<7;12;44;15;<10;5,5;1,8;47
18.05.2023;07:00;74,1;<7;13;49;15;<10;7,5;2,2;61
18.05.2023;08:00;63,8;<7;<10;59;15;<10;10,0;2,7;62
18.05.2023;09:00;56,4;<7;<10;65;15;<10;12,4;2,5;52
18.05.2023;10:00;51,5;<7;<10;73;15;<10;13,9;3,1;39
18.05.2023;11:00;48,1;<7;<10;83;15;<10;14,8;3,1;54
18.05.2023;12:00;47,3;;;;14;<10;15,5;2,9;46
18.05.2023;13:00;45,4;<7;<10;87;15;;16,1;3,2;35
18.05.2023;14:00;44,4;<7;<10;89;15;<10;16,6;3,4;43
18.05.2023;15:00;42,4;<7;<10;91;15;<10;17,5;3,6;37
18.05.2023;16:00;41,0;<7;<10;92;15;<10;17,6;3,6;46
18.05.2023;17:00;43,3;<7;<10;93;15;<10;16,8;3,5;37
18.05.2023;18:00;43,6;<7;<10;94;15;<10;16,6;4,0;34
18.05.2023;19:00;45,1;<7;<10;95;15;<10;16,0;3,5;44
18.05.2023;20:00;49,9;<7;<10;90;14;<10;14,9;2,7;29
18.05.2023;21:00;54,3;<7;<10;85;14;<10;13,4;2,6;26
18.05.2023;22:00;58,1;<7;<10;81;14;<10;12,3;2,6;26
18.05.2023;23:00;62,8;<7;<10;76;14;<10;11,1;2,1;32
18.05.2023;24:00;69,9;<7;<10;66;14;<10;9,7;1,4;37
19.05.2023;01:00;74,1;<7;<10;59;14;<10;8,8;1,5;27
19.05.2023;02:00;75,9;<7;<10;57;14;<10;8,2;1,5;31
19.05.2023;03:00;77,6;<7;<10;54;14;<10;7,8;1,2;34
19.05.2023;04:00;80,8;<7;12;47;14;<10;7,1;1,3;49
19.05.2023;05:00;81,6;<7;18;44;14;<10;6,8;1,6;50
19.05.2023;06:00;81,3;<7;22;37;14;<10;7,1;1,6;49
19.05.2023;07:00;73,8;<7;22;41;15;<10;9,5;1,9;60
19.05.2023;08:00;61,2;<7;18;48;15;<10;13,0;2,4;60
19.05.2023;09:00;52,0;<7;12;61;15;<10;15,7;2,9;60
19.05.2023;10:00;45,8;<7;10;72;15;<10;17,8;3,3;57
19.05.2023;11:00;40,5;<7;<10;84;15;<10;18,5;4,3;77
19.05.2023;12:00;41,1;<7;<10;86;15;<10;19,1;3,7;67
19.05.2023;13:00;39,6;;;91;15;<10;19,8;3,7;63
19.05.2023;14:00;37,8;<7;<10;97;15;;20,5;3,5;58
19.05.2023;15:00;36,5;<7;<10;101;15;<10;21,0;4,1;49
19.05.2023;16:00;35,7;<7;<10;105;15;<10;21,1;3,8;50
19.05.2023;17:00;37,4;<7;<10;107;15;<10;20,2;4,2;54
19.05.2023;18:00;38,7;<7;<10;107;15;<10;19,8;4,3;46
19.05.2023;19:00;39,2;<7;<10;108;15;<10;19,3;3,9;41
19.05.2023;20:00;41,8;<7;<10;107;15;<10;18,2;3,2;37
19.05.2023;21:00;47,1;<7;<10;99;15;<10;16,5;2,6;37
19.05.2023;22:00;51,0;<7;<10;95;15;<10;15,2;2,7;31
19.05.2023;23:00;56,0;<7;<10;;15;<10;13,9;2,4;36
19.05.2023;24:00;59,5;<7;<10;83;15;<10;13,0;2,4;34
20.05.2023;01:00;60,1;<7;<10;80;15;<10;12,7;2,8;31
20.05.2023;02:00;63,6;<7;<10;74;15;<10;11,9;2,5;35
20.05.2023;03:00;68,5;<7;<10;67;15;<10;11,2;2,3;35
20.05.2023;04:00;72,5;<7;<10;62;15;<10;11,0;2,3;30
20.05.2023;05:00;77,5;<7;<10;56;14;<10;10,3;2,1;30
20.05.2023;06:00;77,7;<7;10;52;15;<10;10,7;2,4;23
20.05.2023;07:00;73,8;<7;<10;52;15;<10;12,1;2,5;32
20.05.2023;08:00;61,8;<7;<10;58;14;<10;15,5;3,9;45
20.05.2023;09:00;56,9;<7;<10;69;14;<10;16,9;4,9;57
20.05.2023;10:00;59,9;<7;<10;67;14;<10;16,4;4,9;51
20.05.2023;11:00;59,4;<7;<10;69;14;<10;16,8;5,4;53
20.05.2023;12:00;59,6;<7;<10;66;14;<10;17,2;4,2;63
20.05.2023;13:00;59,8;<7;<10;73;14;<10;17,5;4,4;52
20.05.2023;14:00;56,5;;;84;14;<10;19,2;5,4;46
20.05.2023;15:00;52,9;<7;<10;90;14;;20,1;4,6;52
20.05.2023;16:00;51,6;<7;<10;92;14;<10;20,0;4,3;59
20.05.2023;17:00;52,5;<7;<10;92;14;<10;19,6;4,8;58
20.05.2023;18:00;54,5;<7;<10;90;13;<10;18,9;4,3;50
20.05.2023;19:00;57,3;<7;<10;84;13;<10;18,2;4,0;71
20.05.2023;20:00;60,4;<7;<10;79;13;<10;17,5;3,5;56
20.05.2023;21:00;64,0;<7;11;71;13;<10;16,8;2,4;55
20.05.2023;22:00;69,6;<7;<10;67;13;<10;15,6;1,8;54
20.05.2023;23:00;73,0;<7;<10;66;13;<10;14,9;1,9;45
20.05.2023;24:00;76,9;<7;<10;;13;<10;14,1;2,0;47
21.05.2023;01:00;79,8;<7;<10;59;13;<10;13,5;1,7;41
21.05.2023;02:00;81,2;<7;<10;56;14;<10;13,2;2,0;21
21.05.2023;03:00;82,2;<7;<10;56;14;<10;12,9;2,1;27
21.05.2023;04:00;82,7;<7;<10;53;14;<10;12,8;1,9;16
21.05.2023;05:00;84,4;<7;<10;49;14;<10;12,4;1,9;25
21.05.2023;06:00;84,7;<7;<10;47;13;<10;12,6;2,0;30
21.05.2023;07:00;83,6;<7;<10;45;13;<10;13,1;2,0;32
21.05.2023;08:00;80,1;<7;<10;44;13;<10;14,4;2,5;39
21.05.2023;09:00;75,4;<7;<10;47;13;<10;16,1;2,6;24
21.05.2023;10:00;69,8;<7;<10;53;13;<10;18,0;2,9;28
21.05.2023;11:00;68,4;<7;<10;59;14;<10;18,8;3,1;21
21.05.2023;12:00;65,4;<7;<10;64;14;<10;20,2;3,1;11
21.05.2023;13:00;62,9;<7;<10;72;14;<10;21,4;2,9;20
21.05.2023;14:00;59,9;<7;<10;81;14;<10;22,9;3,7;21
21.05.2023;15:00;56,3;;;92;15;<10;24,2;3,5;33
21.05.2023;16:00;54,7;<7;<10;99;15;;24,5;3,2;42
21.05.2023;17:00;57,5;<7;<10;102;16;<10;23,9;3,5;41
21.05.2023;18:00;59,8;<7;<10;102;16;<10;23,6;3,5;25
21.05.2023;19:00;59,0;<7;<10;101;16;<10;23,9;3,0;32
21.05.2023;20:00;62,8;<7;<10;97;17;<10;23,1;2,6;21
21.05.2023;21:00;67,1;<7;<10;87;18;<10;22,0;2,1;341
21.05.2023;22:00;71,4;<7;12;75;18;<10;21,1;2,2;265
21.05.2023;23:00;78,3;<7;<10;76;19;<10;19,9;2,6;306
21.05.2023;24:00;92,7;<7;<10;73;19;<10;17,4;2,6;316
22.05.2023;01:00;94,4;<7;12;;19;<10;17,4;2,2;329
22.05.2023;02:00;93,0;<7;<10;61;19;<10;17,5;2,6;2
22.05.2023;03:00;91,4;<7;<10;65;19;<10;17,3;2,4;39
22.05.2023;04:00;91,5;<7;<10;59;19;<10;16,7;1,2;297
22.05.2023;05:00;95,6;<7;20;31;20;<10;16,1;1,0;286
22.05.2023;06:00;96,6;<7;23;23;20;<10;16,1;1,3;287
22.05.2023;07:00;94,9;<7;22;22;20;<10;16,8;0,9;284
22.05.2023;08:00;85,5;<7;21;28;21;<10;19,0;1,4;288
22.05.2023;09:00;80,0;<7;20;38;21;<10;20,4;2,3;280
22.05.2023;10:00;82,9;<7;13;35;22;<10;20,0;3,3;252
22.05.2023;11:00;82,9;<7;13;38;22;<10;19,0;3,0;248
22.05.2023;12:00;75,9;<7;11;58;23;<10;20,8;2,6;244
22.05.2023;13:00;71,5;<7;11;76;23;<10;22,7;2,6;254
22.05.2023;14:00;66,8;<7;<10;93;23;<10;24,4;3,0;265
22.05.2023;15:00;62,1;<7;<10;104;24;<10;25,3;2,9;267
22.05.2023;16:00;63,8;;;106;24;<10;23,9;2,6;264
22.05.2023;17:00;64,5;<7;12;107;24;;24,2;2,6;250
22.05.2023;18:00;69,8;<7;<10;111;24;<10;21,7;4,4;320
22.05.2023;19:00;79,4;<7;<10;95;24;<10;19,9;2,9;312
22.05.2023;20:00;77,7;<7;13;82;24;<10;20,3;2,7;312
22.05.2023;21:00;71,5;<7;<10;92;24;<10;19,7;3,0;320
22.05.2023;22:00;74,2;<7;<10;90;23;<10;18,1;1,9;311
22.05.2023;23:00;76,2;<7;<10;91;23;<10;17,1;2,5;317
22.05.2023;24:00;80,8;<7;10;84;22;<10;16,3;2,7;302
23.05.2023;01:00;81,9;<7;<10;96;22;<10;15,7;3,6;311
23.05.2023;02:00;80,8;<7;<10;;21;<10;15,4;3,3;306
23.05.2023;03:00;81,5;<7;<10;92;21;<10;15,4;3,4;297
23.05.2023;04:00;80,9;<7;<10;94;21;<10;15,3;3,6;307
23.05.2023;05:00;81,8;<7;<10;95;20;<10;14,9;4,0;309
23.05.2023;06:00;83,9;<7;<10;92;20;<10;14,7;3,7;317
23.05.2023;07:00;84,3;<7;<10;89;20;<10;14,6;3,7;308
23.05.2023;08:00;81,3;<7;<10;87;19;<10;14,7;4,0;315
23.05.2023;09:00;82,1;<7;<10;78;19;<10;14,0;4,4;320
23.05.2023;10:00;84,0;<7;<10;68;18;<10;13,1;4,2;322
23.05.2023;11:00;81,5;<7;12;67;18;<10;12,9;3,7;316
23.05.2023;12:00;68,5;<7;<10;74;17;<10;14,5;4,7;333
23.05.2023;13:00;64,2;<7;<10;72;17;<10;15,1;4,2;334
23.05.2023;14:00;54,9;<7;<10;80;16;<10;16,5;4,1;335
23.05.2023;15:00;51,6;<7;<10;81;16;<10;17,1;3,8;333
23.05.2023;16:00;49,9;<7;<10;83;16;<10;17,0;4,2;331
23.05.2023;17:00;51,6;;;83;15;<10;16,2;4,2;336
23.05.2023;18:00;51,8;<7;<10;83;15;;16,0;4,1;352
23.05.2023;19:00;52,5;<7;<10;81;15;<10;15,4;3,6;351
23.05.2023;20:00;53,8;<7;<10;81;14;<10;14,3;3,5;329
23.05.2023;21:00;56,8;<7;<10;79;14;<10;13,1;3,3;331
23.05.2023;22:00;60,6;<7;<10;75;14;<10;11,8;3,0;339
23.05.2023;23:00;65,2;<7;<10;70;14;<10;10,7;2,5;348
23.05.2023;24:00;69,4;<7;<10;67;14;<10;9,6;2,3;352
24.05.2023;01:00;74,1;<7;<10;60;15;<10;8,7;1,8;344
24.05.2023;02:00;77,9;<7;<10;55;15;<10;8,1;1,6;340
24.05.2023;03:00;83,2;<7;<10;;15;<10;7,2;0,9;324
24.05.2023;04:00;89,0;<7;<10;27;15;<10;6,0;0,7;
24.05.2023;05:00;89,0;<7;15;30;16;<10;6,3;1,1;323
24.05.2023;06:00;89,1;<7;20;19;16;<10;7,0;0,8;326
24.05.2023;07:00;85,3;<7;22;29;16;<10;9,0;1,3;274
24.05.2023;08:00;77,3;<7;19;42;16;<10;11,0;1,3;279
24.05.2023;09:00;69,2;<7;<10;60;17;<10;12,4;2,6;343
24.05.2023;10:00;60,1;<7;<10;72;17;<10;13,6;3,2;349
24.05.2023;11:00;58,0;<7;<10;74;17;<10;14,2;2,8;335
24.05.2023;12:00;53,8;<7;<10;79;17;<10;15,0;3,1;1
24.05.2023;13:00;57,2;<7;<10;79;17;<10;14,2;3,1;19
24.05.2023;14:00;54,7;<7;<10;79;17;<10;15,6;2,8;9
24.05.2023;15:00;54,4;<7;<10;81;17;<10;15,6;3,0;7